Location: Big Prairie
(40.6673°N, 82.0952°W)
Time: 15:06:59
(UTC+00:00)

Cosmos 841 Rocket - Pass Details

Date: 01 July 2022
Orbit: 745 x 772 km, 74.0° (Epoch: 18 August)

Event Time Altitude Azimuth Distance (km) Brightness Sun altitude
Exits shadow 06:45:52 21° 122° (ESE) 1,616 5.0 -24.0°
Maximum altitude 06:47:15 24° 98° (E) 1,512 5.1 -23.9°
Drops below altitude 10° 06:51:19 10° 46° (NE) 2,274 6.8 -23.6°
Sets 06:54:04 0° 33° (NNE) 3,207 8.1 -23.5°
